RH
13 12 12 11 10 9 9 8 8 7 7 7 7 7 7 7 7 7 7 8 7 7 7 6 6 6 5 5 5 4 4 4 4 5 5 5 6 6 6 7 7 7 8 9 9 9 8 8 8 8 7 7 6 6 7 7 7 7 7 6 6 7 7
11 11 10 9 8 8 8 7 8 8 8 8 8 8 9 9 9 9 9 10 10 10 10 9 9 8 8 8 7 6 6 5 5 5 5 6 7 8 8 8 8 8 9 10 10 10 10 9 9 9 9 8 8 7 7 7 8 7 7 7 7 7 7
9 9 8 8 8 8 8 8 8 9 9 9 9 9 10 9 10 10 10 11 11 11 11 12 12 12 11 11 11 10 9 8 8 8 8 9 9 11 11 12 12 11 10 10 11 11 11 11 10 10 10 10 9 9 9 8 8 8 8 8 8 8 9
9 9 8 9 9 9 9 9 9 9 9 9 9 9 9 10 10 10 10 11 11 12 12 13 14 14 14 15 14 14 13 12 11 10 11 12 13 14 16 16 18 17 15 14 16 17 16 13 12 11 11 11 11 10 10 9 9 9 9 10 12 14 14
10 9 9 9 9 9 10 9 10 10 10 10 10 10 10 10 10 11 11 12 13 13 13 14 15 16 17 18 17 18 16 16 16 16 17 20 21 23 24 25 28 29 25 25 29 34 30 22 18 17 16 16 15 13 12 11 11 11 11 12 16 22 25
10 10 10 10 10 11 11 11 11 11 11 11 11 11 11 11 12 12 13 15 16 17 17 17 16 17 19 21 24 24 23 22 25 29 36 43 47 50 49 47 49 49 45 43 48 57 55 44 34 31 33 34 30 25 20 16 15 17 18 18 19 27 36
12 12 13 13 13 13 13 13 13 13 13 13 12 12 12 12 13 14 16 18 19 20 21 21 20 19 21 28 39 48 50 51 53 56 66 76 83 87 86 81 79 79 75 70 72 79 80 72 61 53 54 59 58 52 42 34 34 36 37 35 31 32 37
16 16 17 17 17 17 17 17 16 16 15 15 14 14 13 13 13 14 17 20 22 23 24 26 27 26 26 35 54 74 84 88 89 90 94 99 101 102 102 100 98 98 97 93 92 94 96 94 87 79 76 78 81 81 73 67 68 68 65 65 63 59 57
20 20 21 21 21 21 21 21 20 19 19 18 17 16 15 14 14 14 16 20 23 25 26 30 37 39 38 43 60 80 94 100 101 102 104 106 104 102 101 102 101 101 101 100 100 100 100 101 100 96 94 93 95 98 94 89 89 92 91 92 92 91 90
23 23 23 23 23 24 24 24 23 23 22 21 20 19 17 16 15 15 16 19 23 26 28 37 48 52 52 54 61 75 91 100 102 102 103 104 104 102 101 101 100 100 100 100 100 101 100 100 101 101 100 99 100 102 102 98 97 99 101 101 100 100 100
24 24 24 24 24 25 25 25 25 25 24 23 22 21 20 18 17 16 16 18 23 26 30 41 53 60 66 68 67 73 87 97 102 104 104 103 101 101 100 100 100 100 100 100 100 100 100 100 100 100 100 100 100 101 101 100 100 100 101 100 100 101 100
23 23 24 24 25 25 25 26 26 26 25 25 24 24 22 20 19 17 17 18 23 26 29 35 48 64 78 81 75 75 85 94 99 103 105 104 102 101 100 100 100 100 100 100 100 100 100 100 100 100 100 100 100 100 101 101 100 100 101 101 100 100 100
20 21 21 22 23 24 25 26 27 27 26 26 25 25 24 23 21 20 19 19 23 27 27 28 37 56 78 89 85 81 86 92 96 98 102 105 103 101 101 101 100 100 100 100 100 100 100 100 100 100 100 100 100 100 101 101 101 100 100 101 100 100 100
16 16 17 18 19 20 22 24 26 27 27 28 27 26 25 24 22 22 21 21 24 27 27 27 30 41 62 83 92 90 90 93 95 94 96 101 104 104 103 103 101 100 100 100 100 100 100 100 100 100 100 100 100 100 101 101 101 100 100 100 100 100 100
18 18 18 18 18 18 19 21 23 25 27 29 29 28 27 25 24 24 23 23 25 28 29 28 28 32 45 67 88 96 95 97 97 93 91 95 101 104 104 104 102 101 101 100 100 100 100 100 100 100 100 100 101 100 101 101 100 100 100 100 100 100 100
18 19 19 20 21 21 21 22 21 21 23 27 29 29 28 27 26 25 24 24 27 29 30 30 29 29 32 47 72 91 98 99 98 95 92 92 94 98 102 104 103 103 103 102 100 100 100 100 100 100 100 100 101 100 100 100 101 101 101 100 100 100 100
18 18 18 18 19 20 21 23 24 23 22 23 25 27 28 29 29 28 27 27 28 28 29 29 31 31 29 32 48 72 91 97 97 96 96 94 90 91 97 103 105 106 105 103 101 101 101 100 100 100 100 100 100 100 100 100 102 102 101 100 100 101 100
20 21 21 21 20 20 19 20 22 24 25 25 24 23 24 27 29 30 30 30 30 30 30 29 30 32 32 30 33 47 68 83 91 93 94 94 92 92 97 102 104 106 106 104 103 103 101 101 101 100 100 100 100 100 100 101 101 101 101 100 100 100 100
19 19 21 22 22 23 22 21 21 22 23 24 25 24 23 24 26 29 32 32 32 33 32 31 31 31 32 33 31 33 41 55 71 80 82 88 96 100 101 99 98 101 106 106 105 104 102 102 103 102 101 101 101 101 101 101 100 100 100 100 100 100 100
19 19 20 20 20 21 21 22 23 24 23 22 23 24 23 23 24 26 29 32 33 34 33 33 34 32 32 33 35 34 32 34 44 53 63 81 96 102 101 99 98 101 105 106 105 105 103 103 104 104 103 103 103 105 105 103 103 102 101 100 100 101 100
18 19 20 20 20 20 20 19 20 22 23 23 23 22 22 23 24 24 26 29 31 33 33 34 34 34 33 33 35 37 36 33 31 33 41 59 79 90 97 101 101 102 103 104 106 106 105 105 104 103 103 104 105 106 106 105 105 104 103 102 101 101 101
16 16 17 18 18 19 18 19 18 19 20 21 22 24 23 23 22 22 23 25 28 30 31 33 34 34 34 34 35 36 37 36 35 31 30 35 47 62 80 93 99 102 103 104 106 107 106 106 104 103 103 102 102 103 103 104 105 103 103 104 103 102 102
15 16 16 16 16 16 16 16 17 17 18 18 19 21 23 24 23 22 22 23 24 26 27 29 32 33 33 34 34 35 35 35 36 35 33 31 30 36 48 64 80 93 100 103 105 106 106 106 105 104 104 103 101 101 100 100 100 101 101 103 103 103 103
16 15 15 15 15 15 14 14 14 14 16 17 17 19 20 20 21 21 21 21 23 23 24 26 28 30 31 31 32 33 34 34 34 34 34 34 33 31 31 36 47 62 77 90 99 104 106 107 107 106 106 104 101 101 100 98 96 97 98 100 101 102 103
16 16 16 15 15 15 14 13 13 13 13 14 15 17 17 18 18 19 19 20 21 22 22 24 25 27 27 28 28 29 30 31 32 33 33 33 34 34 32 31 31 34 43 57 72 86 95 102 105 107 107 105 103 102 102 100 97 94 92 93 96 99 102
18 17 17 16 15 15 15 14 14 14 14 13 13 13 14 15 16 16 17 18 18 19 20 21 23 25 26 26 25 25 25 26 28 29 31 32 32 33 33 33 32 31 30 32 39 51 64 77 88 96 101 102 102 103 103 102 101 99 95 90 89 92 97
31 28 25 22 20 18 17 16 15 14 14 13 13 13 13 13 13 13 14 15 15 16 17 19 20 22 23 24 24 24 23 24 24 25 25 27 28 29 30 32 32 33 33 32 30 30 35 43 53 65 76 85 92 96 98 98 99 101 100 97 92 91 93
57 52 47 42 38 36 33 29 26 23 20 17 16 14 13 13 13 13 13 13 13 13 14 15 16 17 18 19 20 21 22 22 23 23 23 23 23 24 25 27 28 30 31 32 32 32 31 31 32 36 43 52 63 73 81 86 90 92 95 96 95 94 95
75 74 71 66 61 58 56 53 49 45 41 36 32 28 23 19 16 15 14 13 12 12 12 12 13 13 14 14 15 16 18 19 19 20 21 22 23 22 22 22 23 24 26 27 28 30 31 32 32 31 31 31 35 42 50 58 67 74 80 84 87 89 91
79 79 79 78 74 71 69 68 66 62 59 56 53 49 45 40 34 29 25 21 19 17 15 13 13 12 12 12 13 13 14 14 15 16 17 18 20 21 22 22 21 21 21 22 23 25 26 28 29 30 31 31 30 30 31 34 38 45 53 60 67 73 78
79 78 78 80 80 78 75 73 72 70 67 65 62 60 58 57 55 52 48 43 40 37 32 26 22 20 17 15 14 13 13 13 13 14 14 14 15 16 17 18 20 20 20 20 20 21 22 23 24 25 26 28 29 30 30 30 29 29 32 35 40 46 53
79 79 78 78 80 82 82 79 77 75 73 70 68 66 63 62 61 61 61 60 57 55 53 49 45 41 37 32 27 23 20 17 15 14 14 13 14 14 14 14 14 15 16 17 19 20 20 20 21 22 23 23 24 25 26 27 28 28 28 28 28 30 32
80 83 84 82 81 82 84 85 83 82 80 79 76 73 70 67 65 65 65 65 65 63 62 60 59 57 56 54 50 46 42 37 32 26 22 18 16 14 14 14 14 14 14 14 14 15 16 18 18 19 20 21 21 22 22 23 24 24 25 25 26 27 27
90 91 92 92 90 87 86 88 89 89 89 88 88 86 83 79 75 72 70 70 71 71 70 68 67 66 64 63 63 61 60 58 56 52 47 41 35 29 23 18 16 15 15 15 15 14 14 14 14 15 16 17 18 19 20 21 22 22 22 22 22 23 24
102 100 97 96 97 96 91 88 89 91 91 92 93 94 94 93 89 85 81 78 77 77 77 76 76 77 76 74 72 71 70 68 67 66 65 62 60 56 51 45 37 30 22 17 16 17 17 17 15 14 14 14 15 16 17 18 19 20 20 21 21 21 21
104 104 102 99 100 102 99 93 88 88 87 87 87 89 92 94 95 95 93 90 88 86 84 82 80 82 85 85 84 83 82 80 78 76 74 72 70 67 65 63 62 59 53 42 30 22 18 19 20 20 19 17 16 16 15 15 16 17 18 18 19 20 20
Wind_Speed
118 118 118 118 117 117 116 115 114 113 111 110 108 106 104 102 100 98 96 94 92 92 91 90 90 90 90 90 91 92 94 95 97 99 100 101 102 103 103 104 104 103 102 102 101 100 99 97 96 96 97 97 97 96 95 93 92 92 91 91 90 90 89
117 117 116 115 114 113 112 110 108 107 105 103 101 99 97 96 94 92 90 89 87 85 85 84 83 83 83 83 83 83 85 86 89 91 93 95 96 97 99 100 101 102 101 100 101 100 99 98 96 96 96 97 98 98 97 95 94 92 92 91 91 90 90
114 113 111 110 108 106 105 103 101 99 98 96 94 93 91 90 88 87 85 84 83 81 80 79 79 79 79 78 78 78 78 80 82 85 88 90 92 93 94 95 97 99 98 98 99 99 98 98 97 97 97 97 97 98 98 97 95 94 92 92 91 90 90
108 106 104 102 101 99 97 95 94 92 91 89 88 86 85 84 83 81 80 79 79 78 77 75 75 75 75 75 75 75 75 75 77 80 83 85 88 89 90 91 92 94 94 94 94 94 95 95 96 96 96 96 96 97 97 97 96 94 93 91 91 90 90
100 98 96 95 93 91 89 88 86 85 83 82 81 80 79 78 76 76 75 74 74 74 74 73 72 72 72 72 72 72 72 73 73 75 77 79 81 83 85 85 86 87 88 88 87 87 89 90 91 91 92 92 93 94 95 95 94 93 92 91 90 89 88
91 90 88 86 85 83 82 80 79 78 77 75 75 74 73 72 71 70 69 69 70 70 71 71 71 70 69 69 69 70 70 70 70 71 71 73 74 75 76 77 78 79 81 81 80 80 81 83 84 84 84 85 86 87 89 90 90 90 89 89 89 88 87
83 82 81 80 79 78 76 75 74 73 72 71 70 69 68 67 66 65 65 65 66 67 68 69 70 69 68 67 66 67 67 67 67 67 67 67 67 67 68 69 70 71 72 74 74 73 74 76 77 77 77 77 77 78 79 81 82 84 84 85 85 86 86
79 78 77 76 75 74 74 73 72 71 70 69 68 67 66 65 63 62 62 62 63 64 65 66 68 68 67 65 64 64 64 65 66 66 65 65 64 64 64 64 64 65 66 67 67 67 68 69 70 71 71 71 70 70 71 72 74 77 79 79 79 80 81
78 77 76 75 74 73 73 72 71 71 70 68 68 67 65 64 62 60 60 60 60 61 63 64 66 67 67 65 63 62 62 63 64 65 64 64 64 63 63 62 62 62 63 64 64 63 64 64 65 65 65 64 64 65 67 68 70 72 73 73 74 75 75
78 77 76 75 74 73 72 72 71 71 70 69 68 67 65 63 61 60 59 58 59 59 61 62 64 65 65 65 64 62 61 61 62 63 63 63 63 63 63 63 62 62 63 63 63 62 62 62 62 62 61 61 63 64 65 66 67 69 70 70 70 71 73
77 76 75 74 73 72 72 71 71 70 70 69 68 67 66 64 61 59 58 57 57 58 59 61 62 63 64 64 64 63 61 60 60 61 61 62 62 62 62 63 63 63 63 63 63 63 63 62 62 62 62 62 64 66 66 65 66 67 68 68 68 69 71
74 74 73 73 72 71 71 71 71 70 70 69 68 68 67 64 61 59 57 57 57 58 59 60 60 61 62 64 64 63 61 60 59 59 59 60 61 62 62 63 63 64 64 64 64 64 64 64 64 64 64 64 66 67 67 66 66 66 66 67 66 67 70
71 70 70 69 69 68 68 68 69 69 69 68 68 68 67 65 61 58 57 57 57 59 60 59 59 59 61 62 63 63 62 61 59 58 58 59 60 61 62 62 63 63 64 65 65 66 66 66 66 66 67 67 67 68 68 67 67 67 68 68 68 68 70
67 66 66 66 65 65 64 65 66 66 66 66 66 67 67 64 61 58 57 57 58 60 60 59 58 58 59 60 62 63 63 62 61 59 57 56 58 60 62 62 62 63 64 65 66 67 68 68 68 69 69 69 68 68 69 69 69 69 69 69 70 71 72
65 64 64 64 63 62 61 62 63 63 63 63 64 64 65 63 60 58 57 57 58 60 59 58 58 58 58 58 60 62 63 63 62 61 58 55 56 58 60 62 63 63 64 65 66 67 68 69 70 70 70 70 70 70 70 70 70 70 69 69 70 72 74
64 64 63 63 62 60 59 60 60 60 60 61 62 62 62 60 59 58 57 57 58 60 59 58 58 58 57 57 58 60 62 63 64 63 60 57 56 56 57 59 62 64 65 66 66 67 68 69 70 71 71 72 72 73 72 72 71 70 69 68 68 70 72
63 63 62 62 61 60 59 58 59 58 58 58 59 60 59 58 57 56 55 56 58 59 59 58 58 57 57 57 57 59 61 63 64 63 62 60 58 56 55 56 60 63 65 66 67 67 67 68 70 71 72 73 73 74 74 73 72 71 69 68 68 68 69
61 61 61 61 60 60 58 58 58 57 56 56 57 57 57 56 55 54 54 55 57 58 58 58 57 57 56 56 57 58 61 62 63 63 63 62 60 57 57 57 58 60 62 65 67 68 68 68 69 70 71 72 73 73 74 73 73 72 70 69 68 68 68
60 60 60 60 59 59 57 56 56 56 56 55 56 55 54 54 53 52 52 53 54 56 57 57 57 56 56 55 56 57 59 61 63 63 63 62 61 60 60 60 59 58 59 62 64 66 67 68 69 70 70 71 72 72 72 73 72 71 71 70 69 69 69
58 58 58 59 59 58 57 55 54 55 55 54 54 54 53 52 51 51 51 51 52 54 55 55 55 56 55 55 55 56 58 60 61 62 61 62 63 64 64 62 61 60 60 61 62 63 64 66 68 69 70 70 71 71 72 72 72 71 71 70 70 70 70
53 53 54 55 56 56 56 55 53 53 53 53 53 53 52 51 50 50 49 49 50 53 54 54 54 54 54 54 55 56 57 58 59 60 59 61 63 65 66 65 64 63 63 62 62 62 62 63 65 66 67 69 70 71 71 72 72 72 72 71 71 71 71
44 45 46 48 50 51 51 52 52 51 51 51 51 51 51 51 50 49 48 47 48 50 52 53 53 53 53 54 54 55 56 57 57 58 58 59 61 63 66 67 67 66 66 65 64 63 63 63 64 64 65 66 67 68 69 70 71 72 72 72 72 73 73
38 38 38 40 42 44 45 45 47 48 48 49 49 49 49 50 49 49 48 46 46 48 49 50 52 53 53 53 53 54 55 56 57 57 57 58 58 60 62 65 67 69 69 69 68 67 66 66 65 64 65 65 66 67 67 68 69 70 71 72 72 73 74
35 34 34 34 35 37 39 39 40 41 43 43 45 46 47 48 48 48 47 46 46 46 47 48 49 51 52 53 53 53 54 55 56 57 57 58 58 58 59 61 63 66 69 70 71 71 70 69 69 67 67 67 67 67 67 67 68 69 69 70 71 72 73
37 36 35 33 33 33 34 34 34 35 35 36 37 40 42 44 46 46 46 46 45 45 45 46 48 49 50 51 52 53 53 54 55 56 57 57 58 58 58 59 60 62 64 67 70 72 73 73 73 72 71 70 69 69 69 69 69 69 69 70 70 71 72
40 40 39 37 36 34 34 34 33 31 31 30 30 31 33 35 38 40 42 43 44 44 44 45 46 47 49 50 51 51 52 52 53 55 56 57 58 58 59 59 59 60 61 63 66 68 71 73 75 76 75 75 74 73 72 72 71 71 71 71 71 71 72
40 40 40 39 39 39 38 37 35 34 32 31 30 28 27 27 28 30 33 35 38 40 41 42 44 46 47 49 49 50 50 51 52 53 54 55 56 57 58 59 60 60 61 62 63 64 66 69 72 74 76 77 78 78 77 76 75 74 74 74 73 73 74
37 38 39 39 39 39 40 39 38 37 36 35 34 32 31 29 27 26 25 26 28 30 33 36 39 42 45 47 47 48 49 50 51 52 53 54 55 56 57 58 58 59 60 61 62 63 64 66 68 69 72 74 76 79 80 81 80 79 79 78 77 76 76
34 35 36 37 37 37 38 38 39 38 37 37 36 35 34 33 31 29 28 26 25 24 24 26 29 33 37 40 42 44 47 48 49 50 51 52 54 55 56 57 57 58 59 60 61 62 64 65 67 68 69 70 72 74 77 80 81 82 83 83 82 81 80
32 32 32 34 35 35 35 35 36 36 36 36 35 34 34 33 32 31 31 30 29 28 26 25 24 25 26 28 31 34 38 41 43 46 48 50 52 53 55 56 57 57 58 59 59 61 62 64 66 67 68 69 70 71 73 75 77 79 81 83 84 85 85
32 32 31 31 32 33 34 34 34 35 35 35 34 34 33 32 31 31 31 30 30 30 29 28 27 26 26 25 25 25 26 28 31 34 38 41 45 48 51 53 55 57 57 58 58 60 61 62 64 65 67 68 69 70 72 73 74 75 77 79 81 82 84
33 33 33 32 32 32 32 33 33 33 34 34 34 33 33 32 31 30 30 30 29 29 29 29 28 28 28 27 26 26 25 25 25 25 27 29 32 36 40 44 47 51 53 55 57 59 60 61 63 64 65 66 68 69 71 72 74 75 75 76 78 79 80
35 35 35 35 34 33 32 32 32 32 32 33 33 33 33 33 32 30 29 28 28 29 29 28 28 28 28 28 27 27 27 26 26 25 25 25 25 27 29 31 34 38 42 46 50 53 56 58 61 62 64 65 66 68 69 70 72 74 75 76 77 78 79
37 36 36 36 37 36 35 34 34 33 33 32 33 33 33 33 33 32 30 28 28 28 28 28 27 27 27 27 27 27 28 28 28 27 27 27 27 26 27 27 28 29 31 34 37 41 45 49 53 57 60 62 64 66 67 69 71 72 73 74 75 76 78
38 38 38 37 37 38 39 38 38 37 36 36 35 34 35 34 35 34 33 31 29 28 28 28 27 27 26 26 26 26 26 27 28 28 28 29 29 29 29 29 29 28 28 29 30 31 34 37 41 45 49 53 56 60 63 65 68 70 71 72 73 74 76
37 38 39 39 38 38 39 40 41 40 40 40 39 38 38 37 37 38 38 36 34 32 31 30 29 27 27 26 25 25 25 25 25 26 26 27 28 29 30 31 32 31 31 30 29 29 30 31 32 35 38 40 44 48 52 56 60 64 67 69 71 72 74
Wind_Direction
291 291 291 291 290 290 290 290 289 289 288 288 287 287 286 285 285 284 282 281 280 278 277 275 274 273 271 270 269 268 266 265 264 263 262 261 261 260 260 259 259 258 257 257 257 257 256 256 255 255 255 255 255 254 254 254 253 253 253 252 252 252 252
291 291 291 290 290 290 289 289 289 288 288 287 286 286 285 284 284 283 282 281 279 278 276 274 273 271 270 269 268 266 265 264 262 261 260 259 259 258 257 257 256 256 255 254 255 254 254 254 253 253 253 253 253 253 253 253 252 252 252 251 251 251 251
291 291 290 290 290 289 289 288 288 287 287 286 285 285 284 283 282 282 281 280 278 277 275 273 272 270 269 267 266 265 264 262 261 260 259 259 258 257 257 256 255 255 253 252 252 252 252 252 251 251 251 250 251 251 251 251 251 251 251 250 250 250 249
291 291 290 290 289 289 288 288 287 286 286 285 284 284 283 282 281 280 279 278 277 276 274 272 271 269 268 266 265 264 263 261 260 260 259 259 259 258 258 257 256 256 254 253 252 252 251 250 250 249 249 249 249 249 249 250 250 250 249 249 249 248 248
292 291 291 290 289 289 288 288 287 286 285 285 284 283 282 281 280 279 278 277 276 275 273 271 269 268 267 265 264 263 262 261 260 260 260 260 260 260 259 259 259 258 257 255 255 254 253 251 250 249 249 249 249 248 248 248 248 248 248 248 247 247 247
292 292 291 291 290 289 288 288 287 286 285 284 283 282 281 280 279 278 277 276 275 274 273 271 269 267 266 265 263 262 261 261 260 260 260 260 260 260 260 260 259 259 259 258 257 256 256 254 252 251 250 250 250 249 249 249 248 248 248 247 247 246 246
292 292 291 291 290 289 288 288 287 286 285 284 283 282 281 280 279 278 277 276 275 274 273 272 270 268 265 264 263 262 261 261 261 261 261 261 260 260 259 258 258 258 259 258 258 257 257 256 255 253 252 252 251 251 251 250 249 249 248 247 247 246 246
292 291 291 290 289 289 288 287 286 285 285 284 283 282 281 280 278 277 276 275 275 274 273 272 271 269 266 264 263 262 261 261 261 261 261 260 260 259 258 257 256 256 256 257 257 256 256 256 255 254 254 253 252 252 251 250 249 249 249 248 247 247 246
291 291 290 289 289 288 287 287 286 285 284 283 282 281 281 280 278 277 276 274 274 274 273 272 270 269 267 265 263 262 261 261 260 260 260 260 259 258 257 256 254 254 254 255 255 255 254 254 254 253 252 252 251 251 251 249 249 248 249 249 248 247 246
291 291 289 288 288 287 286 286 285 284 283 282 282 281 280 279 278 277 275 273 272 272 272 270 269 268 267 266 264 263 262 261 261 260 259 258 258 257 256 255 253 252 252 253 253 253 253 252 251 250 249 247 246 248 250 250 248 247 247 248 248 247 245
291 290 289 288 287 286 285 285 284 283 283 282 281 280 279 278 278 277 275 273 272 270 269 268 267 267 266 265 264 263 263 262 261 260 258 257 256 255 254 253 253 252 252 252 252 252 252 251 249 248 247 244 243 245 248 249 248 247 246 246 246 248 247
291 290 289 288 287 286 285 284 283 283 282 281 281 280 279 278 277 276 275 274 271 269 267 267 267 266 265 265 264 263 262 262 261 260 258 256 255 254 253 252 252 252 251 251 251 251 251 251 249 247 246 244 243 244 246 248 248 247 245 244 244 247 248
292 291 290 289 288 287 286 284 283 282 282 281 280 279 278 277 277 276 275 273 271 269 267 266 266 265 264 264 264 263 262 261 261 261 259 257 255 253 252 252 251 251 251 251 251 251 251 251 249 247 245 244 244 243 244 247 248 248 247 244 243 243 246
294 293 292 290 289 288 287 285 284 283 282 281 280 279 278 278 277 276 274 273 271 269 268 267 265 264 263 262 262 262 262 261 260 260 259 259 256 254 252 251 251 251 251 251 251 251 250 250 250 248 245 245 244 244 244 246 248 249 249 247 244 243 243
294 293 292 291 291 290 288 287 285 284 282 281 280 279 279 278 277 275 274 272 271 270 268 267 265 264 263 262 261 261 261 261 260 259 258 259 258 256 254 252 251 251 251 251 250 250 250 250 250 249 247 246 245 245 246 247 249 250 250 249 247 245 244
294 293 292 291 290 289 288 287 286 285 284 282 281 280 279 278 277 276 274 272 271 270 269 268 266 265 263 261 260 259 259 259 259 259 258 257 257 257 256 254 252 251 251 251 250 250 250 250 250 250 249 248 247 247 248 249 251 251 250 249 248 248 247
294 293 291 290 289 288 287 287 286 286 285 283 282 281 280 279 278 276 275 273 272 271 270 268 267 266 264 262 260 259 258 258 258 258 257 256 256 256 257 256 254 252 252 251 250 250 249 249 250 250 250 250 249 249 250 251 252 252 252 250 249 248 248
294 293 292 290 289 288 287 286 285 285 284 284 283 282 281 280 278 277 275 273 273 272 271 270 268 267 265 264 262 260 258 257 256 256 256 255 255 255 256 255 255 254 254 253 252 251 250 249 249 249 250 250 250 250 251 251 252 252 252 252 250 248 248
294 293 292 290 289 288 287 286 285 284 284 283 283 282 282 281 280 277 275 273 273 272 272 271 269 268 266 265 263 262 260 259 257 256 255 255 255 254 254 254 255 256 256 255 254 252 251 250 250 249 249 250 250 250 251 251 251 251 252 252 251 250 248
294 292 291 290 289 288 288 287 286 285 284 283 282 282 282 281 280 278 275 274 273 272 272 272 271 269 268 266 265 264 263 261 260 258 257 255 254 253 253 253 253 254 255 256 256 255 254 252 251 250 250 250 250 250 250 250 250 250 250 251 251 251 250
298 295 293 291 290 288 287 287 286 285 284 284 283 282 282 281 280 278 276 275 273 272 272 272 271 270 269 268 266 265 264 263 262 261 259 256 254 253 253 253 253 253 253 254 255 256 256 255 254 252 251 250 250 250 250 250 250 249 249 249 250 250 250
306 303 300 296 293 291 289 288 286 285 284 284 284 283 282 281 280 278 277 275 273 272 272 271 271 271 270 269 268 267 266 265 264 263 261 259 256 255 254 253 252 252 252 253 254 254 255 256 255 255 254 253 252 251 250 250 250 250 249 249 249 249 249
319 316 311 306 302 299 296 293 290 287 285 284 284 283 283 282 281 280 279 277 275 273 273 272 271 271 270 269 268 267 267 266 265 264 263 261 260 257 255 254 253 252 252 252 253 253 253 254 255 255 255 255 254 253 252 251 250 250 249 249 248 248 248
340 336 330 324 318 313 309 305 301 296 293 289 287 285 283 283 282 282 281 279 277 275 274 273 273 272 271 270 269 267 267 266 266 266 265 264 262 260 258 257 255 254 253 253 252 253 253 253 253 253 254 254 255 254 254 253 252 251 250 250 249 248 248
2 359 355 349 343 336 330 326 322 317 311 305 298 292 289 286 285 285 284 283 281 279 277 275 274 273 272 272 271 269 268 267 266 266 266 265 264 263 261 259 258 256 255 254 253 253 253 253 253 252 252 253 253 254 254 254 253 252 251 250 250 249 249
14 14 13 10 7 3 359 355 350 344 337 329 321 312 305 299 294 290 288 286 284 282 280 278 277 275 274 273 272 272 271 269 268 267 266 265 265 264 263 262 261 259 257 256 255 254 253 253 253 252 252 252 252 253 253 253 253 253 253 252 251 251 250
16 17 19 18 16 16 17 16 14 10 4 360 354 346 337 327 317 307 300 294 290 287 283 281 279 277 275 274 273 273 272 271 270 269 268 267 266 265 264 263 262 261 260 258 257 256 255 255 254 253 253 252 252 252 252 252 252 253 253 252 252 251 251
14 14 16 18 17 16 17 19 20 20 19 17 16 13 8 3 355 344 333 321 310 301 293 287 282 280 278 277 276 275 273 272 271 270 270 269 268 267 265 264 263 262 261 260 259 258 258 257 256 255 254 253 253 252 252 252 251 252 252 252 252 251 251
15 14 13 14 15 15 14 14 15 17 18 18 19 19 18 17 14 9 4 356 347 336 323 311 301 293 288 285 282 279 277 275 274 272 271 270 270 269 268 267 265 263 262 261 260 259 259 258 258 257 256 255 254 254 253 252 252 252 251 251 251 251 251
18 18 16 13 13 14 14 13 12 13 14 14 14 15 15 15 14 12 11 9 6 3 358 350 340 328 318 309 300 293 287 283 280 277 275 273 271 270 269 269 268 266 265 263 262 261 260 259 258 258 257 257 256 256 255 254 253 253 252 252 252 251 251
17 18 19 17 15 14 14 13 12 12 11 12 12 12 13 12 11 9 7 7 5 4 4 3 359 355 351 345 336 327 317 307 299 291 285 280 277 274 272 270 269 268 267 266 265 263 262 261 260 259 258 258 257 257 256 256 255 254 254 253 253 252 252
15 14 15 15 15 14 12 11 11 10 9 9 9 9 10 10 10 8 5 3 2 1 0 359 357 356 355 353 351 348 344 338 330 322 312 303 294 286 282 278 275 272 270 268 266 265 264 263 261 260 260 259 258 257 257 257 256 255 255 254 254 254 253
11 10 9 9 10 10 10 8 7 7 6 5 4 4 4 4 6 6 5 2 0 359 358 357 355 353 352 350 348 348 346 344 342 339 335 330 322 313 305 298 291 285 280 275 272 269 267 265 263 262 261 260 259 258 258 258 257 257 256 255 254 254 254
2 4 4 3 2 3 3 4 3 2 2 1 359 358 357 357 357 358 359 359 357 355 354 354 353 351 351 350 348 346 344 342 340 339 337 335 333 329 325 320 315 308 300 292 286 280 275 272 269 266 264 262 261 260 259 258 258 257 257 256 256 255 254
356 357 358 358 358 357 356 357 358 357 356 357 356 354 353 351 350 349 350 351 351 350 348 348 348 346 346 347 346 346 345 342 340 339 337 335 333 331 329 326 324 321 317 312 305 298 290 284 279 275 271 268 266 264 262 261 260 259 258 257 257 256 256
353 353 353 353 354 354 352 352 353 352 352 352 352 351 350 349 347 345 344 343 344 343 342 341 341 340 340 340 340 340 341 340 339 338 337 335 334 333 331 329 327 324 321 318 315 310 305 299 293 287 282 278 274 270 268 265 263 262 260 259 258 257 257